Location: Leo
(52.0556°N, 112.3605°W)
Time: 09:37:20
(UTC+00:00)

FO-29 - Pass Details

Date: 02 December 2023
Orbit: 799 x 1322 km, 98.6° (Epoch: 01 March)

Event Time Altitude Azimuth Distance (km) Brightness Sun altitude
Rises 11:56:18 0° 12° (NNE) 4,032 12.9 -29.7°
Reaches altitude 10° 11:58:57 10° 6° (N) 3,133 12.2 -29.3°
Enters shadow 12:03:40 36° 333° (NNW) 1,888 10.7 -28.6°
